Location: Bartlett
(35.2045°N, 89.8740°W)
Time: 18:00:05
(UTC+00:00)

Transit 4A - Pass Details

Date: 16 December 2025
Orbit: 867 x 974 km, 66.8° (Epoch: 14 January)

Event Time Altitude Azimuth Distance (km) Brightness Sun altitude
Rises 00:18:48 0° 215° (SW) 3,445 11.7 -17.8°
Reaches altitude 10° 00:21:18 10° 219° (SW) 2,505 10.9 -18.3°
Maximum altitude 00:27:00 61° 299° (WNW) 978 8.2 -19.4°
Enters shadow 00:31:43 16° 17° (NNE) 2,144 9.5 -20.4°
Drops below altitude 10° 00:32:46 10° 20° (NNE) 2,524 - -20.6°
Sets 00:35:18 0° 24° (NNE) 3,473 - -21.1°
